Port Huron, MI

1:45 PM EST on December 06, 2019 (GMT -0500)
Saint Clair County International

Weather History for KPHN - November, 2019

Change the Weather History Date:

Tuesday, November 12, 2019

  Actual Average (WUND) Record (WUND)
Temperature  
Mean Temperature 19 °F -  
Max Temperature 26 °F - - (-1)
Min Temperature 12 °F - - (-1)
Degree Days  
Heating Degree Days 46    
Moisture  
Dew Point 12 °F    
Average Humidity 69    
Maximum Humidity 86    
Minimum Humidity 40    
Precipitation  
Precipitation 0.00 in - - ()
Sea Level Pressure  
Sea Level Pressure 30.24 in    
Wind  
Wind Speed 6 mph ()    
Max Wind Speed 16 mph    
Max Gust Speed 24 mph    
Visibility 7.6 miles    
Events Snow    
Averages and records for this station are not official NWS values.
T = Trace of Precipitation, MM = Missing Value Source: Averaged Metar Reports

Daily Weather History Graph

Daily Weather History Graph

Search for Another Location

Airport or City:

Astronomy

Nov. 12, 2019 Rise Set
Actual Time 7:18 AM EST 5:09 PM EST
Civil Twilight 6:47 AM EST 5:40 PM EST
Nautical Twilight 6:13 AM EST 6:14 PM EST
Astronomical Twilight 5:40 AM EST 6:47 PM EST
Moon 5:36 PM EST (11/12) 7:07 AM EST (11/12)
Length of Visible Light 10h 52m
Length of Day
9h 51m
Full, 100% of the Moon is Illuminated
Nov 12
Full
Nov 19
Last Quarter
Nov 26
New
Dec 4
First Quarter
Dec 12
Full

Hourly Weather History & Observations

Time (EST) Temp. Windchill Dew Point Humidity Pressure Visibility Wind Dir Wind Speed Gust Speed Precip Events Conditions
12:15 AM 24.8 °F - 21.2 °F 86% 30.10 in 2.0 mi Calm Calm - N/A Snow Light Snow
12:35 AM 24.8 °F - 21.2 °F 86% 30.10 in 1.0 mi Calm Calm - N/A Snow Snow
12:55 AM 24.8 °F - 21.2 °F 86% 30.10 in 1.2 mi Calm Calm - N/A Snow Light Snow
1:15 AM 24.8 °F 20.5 °F 21.2 °F 86% 30.10 in 1.0 mi NW 3.5 mph - N/A Snow Snow
1:35 AM 24.8 °F 17.9 °F 21.2 °F 86% 30.10 in 1.8 mi NNW 5.8 mph - N/A Snow Light Snow
1:55 AM 24.8 °F 16.9 °F 21.2 °F 86% 30.10 in 1.8 mi NNW 6.9 mph - N/A Snow Light Snow
2:15 AM 24.8 °F 16.9 °F 21.2 °F 86% 30.10 in 2.5 mi NW 6.9 mph - N/A Snow Light Snow
2:55 AM 24.8 °F 14.0 °F 19.4 °F 80% 30.11 in 2.0 mi NW 11.5 mph 16.1 mph N/A Snow Light Snow
3:15 AM 24.8 °F 16.1 °F 19.4 °F 80% 30.11 in 2.0 mi NW 8.1 mph - N/A Snow Light Snow
3:35 AM 23.0 °F 13.1 °F 19.4 °F 86% 30.12 in 1.5 mi NNW 9.2 mph - N/A Snow Light Snow
3:55 AM 23.0 °F 13.1 °F 19.4 °F 86% 30.12 in 1.5 mi NNW 9.2 mph 16.1 mph N/A Snow Light Snow
4:15 AM 23.0 °F 13.1 °F 19.4 °F 86% 30.13 in 2.0 mi NW 9.2 mph - N/A Snow Light Snow
4:35 AM 23.0 °F 14.7 °F 19.4 °F 86% 30.13 in 10.0 mi NW 6.9 mph - N/A   Overcast
4:55 AM 23.0 °F 13.1 °F 17.6 °F 80% 30.14 in 10.0 mi NW 9.2 mph - N/A   Overcast
5:15 AM 23.0 °F 12.4 °F 17.6 °F 80% 30.14 in 10.0 mi NW 10.4 mph - N/A   Overcast
5:55 AM 23.0 °F 13.1 °F 17.6 °F 80% 30.15 in 10.0 mi NW 9.2 mph - N/A   Overcast
6:35 AM 23.0 °F 12.4 °F 17.6 °F 80% 30.16 in 10.0 mi NW 10.4 mph - N/A   Overcast
6:55 AM 23.0 °F 11.7 °F 17.6 °F 80% 30.17 in 5.0 mi NW 11.5 mph 16.1 mph N/A Snow Light Snow
7:15 AM 23.0 °F 12.4 °F 17.6 °F 80% 30.18 in 5.0 mi WNW 10.4 mph - N/A Snow Light Snow
7:35 AM 21.2 °F 10.1 °F 15.8 °F 80% 30.19 in 4.0 mi NW 10.4 mph 16.1 mph N/A Snow Light Snow
7:55 AM 21.2 °F 10.9 °F 15.8 °F 80% 30.20 in 7.0 mi NW 9.2 mph - N/A   Overcast
8:15 AM 21.2 °F 10.9 °F 15.8 °F 80% 30.21 in 7.0 mi NW 9.2 mph - N/A   Overcast
8:55 AM 21.2 °F 10.1 °F 15.8 °F 80% 30.23 in 7.0 mi NW 10.4 mph 17.3 mph N/A   Overcast
9:15 AM 21.2 °F 10.1 °F 14.0 °F 74% 30.23 in 10.0 mi NW 10.4 mph - N/A   Overcast
9:35 AM 21.2 °F 9.5 °F 14.0 °F 74% 30.24 in 10.0 mi WNW 11.5 mph - N/A   Overcast
9:55 AM 23.0 °F 13.1 °F 14.0 °F 68% 30.24 in 10.0 mi WNW 9.2 mph 17.3 mph N/A   Scattered Clouds
10:15 AM 23.0 °F 12.4 °F 14.0 °F 68% 30.25 in 10.0 mi WNW 10.4 mph 16.1 mph N/A   Scattered Clouds
10:35 AM 23.0 °F 10.1 °F 14.0 °F 68% 30.25 in 10.0 mi WNW 15.0 mph 19.6 mph N/A   Clear
10:55 AM 24.8 °F 13.4 °F 14.0 °F 64% 30.25 in 10.0 mi WNW 12.7 mph 18.4 mph N/A   Clear
11:15 AM 24.8 °F 14.0 °F 12.2 °F 59% 30.26 in 2.0 mi NW 11.5 mph 21.9 mph N/A   Haze
11:55 AM 24.8 °F 13.4 °F 10.4 °F 54% 30.26 in 5.0 mi WNW 12.7 mph 20.7 mph N/A   Haze
12:35 PM 24.8 °F 12.9 °F 8.6 °F 50% 30.26 in 5.0 mi WNW 13.8 mph 24.2 mph N/A   Haze
12:55 PM 24.8 °F 11.9 °F 8.6 °F 50% 30.26 in 7.0 mi NW 16.1 mph 19.6 mph N/A   Clear
1:15 PM 24.8 °F 12.9 °F 8.6 °F 50% 30.26 in 10.0 mi WNW 13.8 mph 17.3 mph N/A   Scattered Clouds
1:35 PM 26.6 °F 16.8 °F 8.6 °F 47% 30.26 in 10.0 mi WNW 10.4 mph 18.4 mph N/A   Scattered Clouds
1:55 PM 26.6 °F 15.7 °F 8.6 °F 47% 30.26 in 10.0 mi NW 12.7 mph 18.4 mph N/A   Scattered Clouds
2:35 PM 24.8 °F 14.6 °F 6.8 °F 46% 30.27 in 5.0 mi WNW 10.4 mph 23.0 mph N/A   Haze
2:55 PM 24.8 °F 12.4 °F 5.0 °F 43% 30.27 in 10.0 mi NW 15.0 mph 20.7 mph N/A   Clear
3:15 PM 24.8 °F 13.4 °F 3.2 °F 40% 30.27 in 10.0 mi WNW 12.7 mph 17.3 mph N/A   Clear
3:35 PM 24.8 °F 11.9 °F 3.2 °F 40% 30.28 in 10.0 mi NW 16.1 mph 23.0 mph N/A   Clear
3:55 PM 24.8 °F 14.6 °F 5.0 °F 43% 30.28 in 10.0 mi NW 10.4 mph - N/A   Clear
4:15 PM 24.8 °F 13.4 °F 5.0 °F 43% 30.29 in 10.0 mi WNW 12.7 mph - N/A   Clear
4:35 PM 23.0 °F 13.9 °F 5.0 °F 46% 30.29 in 10.0 mi WNW 8.1 mph - N/A   Clear
4:55 PM 21.2 °F 13.6 °F 6.8 °F 54% 30.29 in 10.0 mi WNW 5.8 mph - N/A   Clear
5:15 PM 21.2 °F 16.4 °F 6.8 °F 54% 30.30 in 10.0 mi WNW 3.5 mph - N/A   Clear
5:35 PM 19.4 °F - 6.8 °F 58% 30.30 in 10.0 mi Calm Calm - N/A   Clear
5:55 PM 19.4 °F - 6.8 °F 58% 30.30 in 10.0 mi Calm Calm - N/A   Scattered Clouds
6:15 PM 15.8 °F - 6.8 °F 68% 30.31 in 10.0 mi Calm Calm - N/A   Scattered Clouds
6:35 PM 12.2 °F 6.1 °F 6.8 °F 79% 30.31 in 10.0 mi WSW 3.5 mph - N/A   Scattered Clouds
6:55 PM 19.4 °F 12.8 °F 10.4 °F 68% 30.32 in 10.0 mi West 4.6 mph - N/A   Clear
7:15 PM 19.4 °F 14.3 °F 8.6 °F 63% 30.32 in 10.0 mi West 3.5 mph - N/A   Clear
7:35 PM 17.6 °F 12.3 °F 8.6 °F 68% 30.32 in 10.0 mi West 3.5 mph - N/A   Clear
7:55 PM 19.4 °F 14.3 °F 10.4 °F 68% 30.32 in 3.0 mi West 3.5 mph - N/A   Haze
8:15 PM 17.6 °F - 10.4 °F 73% 30.32 in 10.0 mi Calm Calm - N/A   Clear
8:35 PM 17.6 °F 12.3 °F 10.4 °F 73% 30.32 in 10.0 mi West 3.5 mph - N/A   Clear
8:55 PM 17.6 °F - 10.4 °F 73% 30.33 in 10.0 mi Calm Calm - N/A   Clear
9:15 PM 17.6 °F - 10.4 °F 73% 30.33 in 10.0 mi Calm Calm - N/A   Clear
9:35 PM 15.8 °F - 8.6 °F 73% 30.33 in 10.0 mi Calm Calm - N/A   Clear
9:55 PM 14.0 °F 8.2 °F 8.6 °F 79% 30.33 in 10.0 mi SW 3.5 mph - N/A   Clear
10:15 PM 15.8 °F 10.2 °F 8.6 °F 73% 30.34 in 10.0 mi WSW 3.5 mph - N/A   Clear
10:35 PM 15.8 °F - 8.6 °F 73% 30.33 in 10.0 mi Calm Calm - N/A   Clear
10:55 PM 15.8 °F - 8.6 °F 73% 30.33 in 10.0 mi Calm Calm - N/A   Clear
11:15 PM 15.8 °F - 6.8 °F 68% 30.33 in 10.0 mi Calm Calm - N/A   Clear
11:35 PM 14.0 °F - 6.8 °F 73% 30.33 in 10.0 mi Calm Calm - N/A   Clear
11:55 PM 14.0 °F - 6.8 °F 73% 30.34 in 10.0 mi Calm Calm - N/A   Clear